Change the Weather History Date:

Wednesday, October 31, 2012

  Actual Average Record
Temperature  
Mean Temperature 68 °F -  
Max Temperature 84 °F - - ()
Min Temperature 52 °F - - ()
Cooling Degree Days 3    
Growing Degree Days 18 (Base 50)    
Moisture  
Dew Point 54 °F    
Average Humidity 61    
Maximum Humidity 94    
Minimum Humidity 22    
Precipitation  
Precipitation 0.00 in - - ()
Sea Level Pressure  
Sea Level Pressure 29.97 in    
Wind  
Wind Speed 5 mph ()    
Max Wind Speed 14 mph    
Max Gust Speed -    
Visibility 7.1 miles    
Events Fog    
T = Trace of Precipitation, MM = Missing Value Source: Averaged Metar Reports

Daily Weather History Graph

Daily Weather History Graph

Search for Another Location

Airport or City:

Trip Planner

Search our weather history database for the weather conditions in past years. The results will help you decide how hot, cold, wet, or windy it might be!

Date:

Astronomy

Oct. 31, 2012 Rise Set
Actual Time 5:54 AM AEDT 7:18 PM AEDT
Civil Twilight 5:28 AM AEDT 7:44 PM AEDT
Nautical Twilight 4:57 AM AEDT 8:15 PM AEDT
Astronomical Twilight 4:25 AM AEDT 8:47 PM AEDT
Moon 8:37 PM AEDT (10/31) 6:29 AM AEDT (10/31)
Length of Visible Light 14h 15m
Length of Day
13h 23m
Full, 99% of the Moon is Illuminated
Oct 31
Full
Nov 7
Last Quarter
Nov 14
New
Nov 21
First Quarter
Nov 29
Full

Hourly Weather History & Observations

Time (AEDT) Temp. Heat Index Dew Point Humidity Pressure Visibility Wind Dir Wind Speed Gust Speed Precip Events Conditions
12:00 AM 59 °F - 55 °F 84% 30.04 in - Calm Calm - -  
12:00 AM 59.0 °F - 55.4 °F 88% 30.01 in 6.2 mi Calm Calm - N/A   Unknown
12:30 AM 60.8 °F - 55.4 °F 82% 30.01 in 6.2 mi NNE 4.6 mph - N/A   Unknown
1:00 AM 59.0 °F - 55.4 °F 88% 30.01 in 6.2 mi Calm Calm - N/A   Unknown
1:30 AM 59.0 °F - 55.4 °F 88% 30.01 in 6.2 mi NNE 3.5 mph - N/A   Unknown
2:00 AM 60 °F - 55 °F 80% 30.00 in - NNE 5.8 mph - -  
2:00 AM 60.8 °F - 55.4 °F 82% 29.98 in 6.2 mi NNE 5.8 mph - N/A   Unknown
2:30 AM 59.0 °F - 55.4 °F 88% 29.98 in 6.2 mi North 4.6 mph - N/A   Unknown
3:00 AM 58 °F - 55 °F 87% 30.00 in - North 4.6 mph - -  
3:00 AM 59.0 °F - 55.4 °F 88% 29.98 in 6.2 mi North 4.6 mph - N/A   Unknown
3:30 AM 59.0 °F - 55.4 °F 88% 29.98 in 6.2 mi North 5.8 mph - N/A   Unknown
4:00 AM 55.4 °F - 53.6 °F 94% 29.98 in 6.2 mi NNE 4.6 mph - N/A   Unknown
4:30 AM 55.4 °F - 53.6 °F 94% 29.98 in 6.2 mi Calm Calm - N/A   Unknown
5:00 AM 55 °F - 54 °F 93% 29.98 in - Calm Calm - -  
5:00 AM 55.4 °F - 53.6 °F 94% 29.98 in 6.2 mi Calm Calm - N/A   Unknown
5:30 AM 55.4 °F - 53.6 °F 94% 29.98 in 6.2 mi Calm Calm - N/A   Unknown
6:00 AM 54 °F - 52 °F 92% 30.00 in 19 mi Calm Calm - - Fog Patches of Fog
6:00 AM 53.6 °F - 51.8 °F 94% 29.98 in 6.2 mi Calm Calm - N/A Fog Shallow Fog
6:30 AM 53.6 °F - 51.8 °F 94% 30.01 in - Calm Calm - N/A   Clear
7:00 AM 59.0 °F - 55.4 °F 88% 30.01 in - Calm Calm - N/A   Clear
7:30 AM 64.4 °F - 53.6 °F 68% 30.01 in - NW 11.5 mph - N/A   Clear
8:00 AM 65 °F - 53 °F 55% 30.02 in - NW 10.4 mph - -  
8:00 AM 64.4 °F - 51.8 °F 64% 30.01 in - NW 10.4 mph - N/A   Clear
8:30 AM 68.0 °F - 51.8 °F 56% 30.01 in - NW 11.5 mph - N/A   Clear
9:00 AM 71 °F - 53 °F 41% 30.03 in 19 mi WNW 12.7 mph - -   Haze
9:00 AM 71.6 °F - 51.8 °F 50% 30.01 in - WNW 12.7 mph - N/A   Clear
9:30 AM 73.4 °F - 51.8 °F 47% 30.01 in - NW 9.2 mph - N/A   Clear
10:00 AM 77.0 °F - 50.0 °F 39% 30.01 in - NW 8.1 mph - N/A   Clear
10:30 AM 77.0 °F - 51.8 °F 41% 29.98 in - West 6.9 mph - N/A   Clear
11:00 AM 79 °F - 51 °F 27% 29.99 in - West 4.6 mph - -  
11:00 AM 78.8 °F - 51.8 °F 39% 29.98 in - West 4.6 mph - N/A   Clear
11:30 AM 84.2 °F - 50.0 °F 30% 29.98 in 6.2 mi SSE 5.8 mph - N/A   Partly Cloudy
12:00 PM 81 °F - 51 °F 24% 29.98 in 25 mi South 9.2 mph - -   Partly Cloudy
12:00 PM 80.6 °F - 50.0 °F 34% 29.98 in 6.2 mi South 9.2 mph - N/A   Partly Cloudy
12:30 PM 80.6 °F 80.3 °F 53.6 °F 39% 29.95 in 6.2 mi SE 10.4 mph - N/A   Partly Cloudy
1:00 PM 80.6 °F - 48.2 °F 32% 29.95 in 6.2 mi ESE 11.5 mph - N/A   Partly Cloudy
1:30 PM 80.6 °F - 50.0 °F 34% 29.95 in 6.2 mi SE 12.7 mph - N/A   Partly Cloudy
2:00 PM 82 °F - 49 °F 22% 29.95 in - SE 13.8 mph - -  
2:00 PM 82.4 °F - 50.0 °F 32% 29.95 in 6.2 mi SE 13.8 mph - N/A   Partly Cloudy
2:30 PM 80.6 °F - 50.0 °F 34% 29.92 in 6.2 mi SE 11.5 mph - N/A   Partly Cloudy
3:00 PM 80.6 °F - 50.0 °F 34% 29.92 in 6.2 mi SE 12.7 mph - N/A   Partly Cloudy
3:30 PM 80.6 °F - 48.2 °F 32% 29.92 in 6.2 mi ESE 11.5 mph - N/A   Unknown
4:00 PM 80.6 °F - 48.2 °F 32% 29.89 in 6.2 mi ESE 10.4 mph - N/A   Partly Cloudy
4:30 PM 80.6 °F - 51.8 °F 37% 29.89 in 6.2 mi East 12.7 mph - N/A   Partly Cloudy
5:00 PM 79 °F - 54 °F 32% 29.91 in - East 12.7 mph - -  
5:00 PM 78.8 °F - 55.4 °F 44% 29.89 in 6.2 mi East 12.7 mph - N/A   Partly Cloudy
5:30 PM 77.0 °F - 53.6 °F 44% 29.89 in - ENE 12.7 mph - N/A   Clear
6:00 PM 76 °F - 52 °F 32% 29.91 in - ENE 11.5 mph - -  
6:00 PM 77.0 °F - 51.8 °F 41% 29.89 in - ENE 11.5 mph - N/A   Clear
6:30 PM 75.2 °F - 53.6 °F 47% 29.92 in - ENE 9.2 mph - N/A   Clear
7:00 PM 73.4 °F - 57.2 °F 57% 29.92 in - ENE 8.1 mph - N/A   Clear
7:30 PM 71.6 °F - 59.0 °F 64% 29.92 in - ENE 8.1 mph - N/A   Clear
8:00 PM 71 °F - 58 °F 54% 29.94 in - ENE 9.2 mph - -  
8:00 PM 71.6 °F - 57.2 °F 60% 29.92 in - ENE 9.2 mph - N/A   Clear
8:30 PM 69.8 °F - 59.0 °F 68% 29.95 in - NE 8.1 mph - N/A   Clear
9:00 PM 68.0 °F - 59.0 °F 73% 29.95 in - NE 6.9 mph - N/A   Clear
9:30 PM 68.0 °F - 59.0 °F 73% 29.95 in - NE 5.8 mph - N/A   Clear
10:00 PM 66.2 °F - 57.2 °F 73% 29.95 in - NE 6.9 mph - N/A   Clear
10:30 PM 66.2 °F - 57.2 °F 73% 29.92 in 6.2 mi NE 4.6 mph - N/A   Unknown
11:00 PM 63 °F - 56 °F 73% 29.94 in - Calm Calm - -  
11:00 PM 62.6 °F - 57.2 °F 82% 29.92 in 6.2 mi Calm Calm - N/A   Unknown